Flag for Germany Weather past 2 weeks in Eckernförde, Schleswig-Holstein, Germany

Now
38 °F

Drizzle. Low clouds.


Feels Like: 34 °F
Forecast: 34 / 38 °F
Wind: 6 mph from Southwest

Location: Schleswig

Current Time: Jan 28, 2015 at 5:43:38 AM

Latest Report: Jan 28, 2015 at 5:00 AM


Visibility: 2 mi

Pressure: 29.85 "Hg

Humidity: 100%

Dew point: 38 °F

Location of EckernfördeLocation

Historic Weather in Eckernförde — Graph

°F

Eckernförde temperature yesterday

Maximum temperature yesterday: 42 °F (at 1:00 PM)
Minimum temperature yesterday: 36 °F (at 8:00 PM)
Average temperature yesterday: 38 °F

Past Weeks' High & Low Weather Summary

 TemperatureHumidityPressure
High48 °F (Jan 13, 11:00 AM)100% (Jan 13, 8:00 AM)30.31 "Hg (Jan 13, 8:00 AM)
Low22 °F (Jan 23, 8:00 AM)76% (Jan 16, 6:00 AM)29.26 "Hg (Jan 15, 3:00 PM)
Average34 °F95%29.88 "Hg
* Reported Jan 13 3:00 AM — Jan 28 3:00 AM, Eckernförde, Weather by CustomWeather, © 2014

Note: Actual official high and low records may vary slightly from our data, if they occured in-between our weather recording intervals... More about our weather records

Advertising

Eckernförde weather history for previous 24 hours

 ConditionsComfort  
Time TempWeatherWind HumidityBarometerVisibility
3:00 AM
Jan 28
39 °FLow clouds.6 mph100%29.91 "Hg2 mi
2:00 AM38 °FLow clouds.5 mph99%29.95 "Hg6 mi
1:00 AM38 °FLow clouds.3 mph99%29.97 "Hg6 mi
12:00 AM37 °FOvercast.3 mph100%29.99 "Hg6 mi
11:00 PM
Jan 27
37 °FFog.5 mph100%30.01 "Hg4 mi
9:00 PM36 °FPassing clouds.3 mph99%30.03 "Hg5 mi
8:00 PM36 °FPassing clouds.5 mph98%30.04 "Hg6 mi
7:00 PM36 °FClear.5 mph96%30.03 "Hg9 mi
6:00 PM39 °FPassing clouds.5 mph90%30.03 "Hg14 mi
5:00 PM38 °FPassing clouds.3 mph85%30.02 "Hg17 mi
3:00 PM42 °FPassing clouds.6 mph76%29.99 "Hg19 mi
2:00 PM42 °FScattered clouds.8 mph78%29.99 "Hg16 mi
1:00 PM42 °FScattered clouds.7 mph82%29.98 "Hg16 mi
12:00 PM40 °FPartly sunny.7 mph84%29.99 "Hg12 mi
11:00 AM40 °FPartly sunny.7 mph85%29.97 "Hg12 mi
9:00 AM36 °FPassing clouds.6 mph92%29.96 "Hg11 mi
8:00 AM37 °FClear.6 mph92%29.94 "Hg11 mi
7:00 AM37 °FClear.7 mph93%29.92 "Hg11 mi
6:00 AM36 °FClear.7 mph94%29.91 "Hg12 mi
5:00 AM36 °FClear.7 mph95%29.90 "Hg12 mi
Weather by CustomWeather, © 2014

See weather overviewHow to use our weather pages